EW7883 Weather Reports


time (UTC)temp
F
wind
direction
speed
knots
gust
knots
rain 1hr
in
rain 24hr
in
rain mn
in
humidity
%
barometer
mb
20260502163005 45 327 0.9 9.6 0.00 0.00 0.00 47 1016.0
20260502161501 44 295 3.5 10.4 0.00 0.00 0.00 46 1016.0
20260502151544 43 279 0.9 6.1 0.00 0.00 0.00 56 1015.9
20260502123104 39 100 0.0 2.6 0.00 0.00 0.00 9 1016.0
20260502121555 38 100 0.0 0.0 0.00 0.00 0.00 1 1016.0
20260502114548 36 360 0.0 0.0 0.00 0.00 0.00 1 1015.9
20260502113040 36 100 0.0 0.9 0.00 0.00 0.00 1 1015.8
20260502111534 35 100 0.0 0.0 0.00 0.00 0.00 1 1015.7
20260502110033 36 100 0.0 0.9 0.00 0.00 0.00 1 1015.6
20260502104526 36 100 0.0 0.0 0.00 0.00 0.00 1 1015.5
20260502103022 37 100 0.0 0.0 0.00 0.00 0.00 1 1015.4
20260502101517 37 100 0.0 0.0 0.00 0.00 0.00 1 1015.4
20260502071529 38 100 0.0 0.0 0.00 0.00 0.00 5 1014.7
20260502070036 38 100 0.0 0.0 0.00 0.00 0.00 5 1014.8
20260502064535 38 100 0.0 0.0 0.00 0.00 0.00 6 1014.8
20260502063017 38 100 0.0 0.0 0.00 0.00 0.00 8 1014.9
20260502061513 39 100 0.0 0.0 0.00 0.00 0.00 11 1015.0
20260502060013 39 100 0.0 1.7 0.00 0.00 0.00 16 1015.2
20260502054508 39 100 0.0 2.6 0.00 0.00 0.00 21 1015.2
20260502053002 39 99 0.9 3.5 0.00 0.00 0.00 24 1015.2
20260502051603 40 96 0.9 5.2 0.00 0.00 0.00 25 1015.1
20260502050058 40 98 1.7 8.7 0.00 0.00 0.00 31 1015.1
20260502044557 40 92 1.7 7.8 0.00 0.00 0.00 32 1015.0
20260502043059 41 70 0.9 5.2 0.00 0.00 0.00 39 1014.8
20260502041551 41 94 0.9 7.0 0.00 0.00 0.00 44 1014.7
20260502040045 42 105 1.7 7.8 0.00 0.00 0.00 45 1014.4
20260502034541 43 27 0.9 5.2 0.00 0.00 0.00 56 1014.2
20260502033041 43 329 0.0 0.0 0.00 0.00 0.00 57 1014.1
20260502031538 43 331 0.9 2.6 0.00 0.00 0.00 57 1014.1
20260502030034 44 350 0.0 3.5 0.00 0.00 0.00 58 1014.0
20260502024529 44 360 0.0 1.7 0.00 0.00 0.00 58 1013.9
20260502023025 44 360 0.0 1.7 0.00 0.00 0.00 58 1014.0
20260502021520 44 360 0.9 3.5 0.00 0.00 0.00 58 1014.0
20260502020016 44 360 0.0 4.3 0.00 0.00 0.00 58 1013.7
20260502014529 44 360 0.9 5.2 0.00 0.00 0.00 58 1013.6
20260502013008 44 360 0.0 3.5 0.00 0.00 0.00 57 1013.6
20260502011503 45 360 0.0 5.2 0.00 0.00 0.00 57 1013.4
20260502004603 45 360 0.0 2.6 0.00 0.00 0.00 57 1013.2
20260502003051 45 360 0.9 4.3 0.00 0.00 0.00 57 1013.1
20260502001546 45 324 0.0 2.6 0.00 0.00 0.00 57 1013.1
20260502000052 45 327 0.9 5.2 0.00 0.00 0.00 57 1012.9
20260501234537 45 323 0.0 4.3 0.00 0.00 0.00 57 1012.8
20260501233033 46 339 0.9 7.8 0.00 0.00 0.00 57 1012.6
20260501231528 46 355 0.0 9.6 0.00 0.00 0.00 57 1012.5
20260501230027 47 9 3.5 8.7 0.00 0.00 0.00 56 1012.5
20260501224520 47 319 1.7 7.8 0.00 0.00 0.00 56 1012.4
20260501223015 48 309 0.9 7.8 0.00 0.00 0.00 55 1012.4
20260501221518 48 325 0.0 3.5 0.00 0.00 0.00 54 1012.2
20260501220012 48 327 0.9 5.2 0.00 0.00 0.00 53 1012.1
20260501214501 48 322 1.7 8.7 0.00 0.00 0.00 55 1012.1
20260501213105 48 313 1.7 7.0 0.00 0.00 0.00 53 1012.0
20260501211600 48 321 0.9 6.1 0.00 0.00 0.00 52 1011.7
20260501210057 48 311 0.9 7.0 0.00 0.00 0.00 53 1011.6
20260501204601 48 323 0.9 8.7 0.00 0.00 0.00 53 1011.7
20260501203057 49 292 1.7 7.0 0.00 0.00 0.00 50 1011.5
20260501201609 50 360 0.9 5.2 0.00 0.00 0.00 49 1011.5
20260501200052 50 360 0.0 5.2 0.00 0.00 0.00 46 1011.4
20260501194551 49 360 0.0 4.3 0.00 0.00 0.00 49 1011.4
20260501193050 50 14 0.0 6.1 0.00 0.00 0.00 48 1011.4
20260501191546 50 322 0.9 5.2 0.00 0.00 0.00 47 1011.2
20260501190040 49 318 1.7 7.0 0.00 0.00 0.00 49 1011.2
20260501184537 49 360 0.9 7.0 0.00 0.00 0.00 49 1011.1
20260501183043 50 304 0.0 7.0 0.00 0.00 0.00 50 1011.0
20260501181535 50 26 0.9 7.0 0.00 0.00 0.00 52 1011.0
20260501180030 49 33 0.9 7.8 0.00 0.00 0.00 53 1011.1
20260501174518 49 33 0.0 2.6 0.00 0.00 0.00 55 1011.0
20260501173016 48 11 1.7 5.2 0.00 0.00 0.00 56 1011.1
20260501171512 48 11 1.7 7.0 0.00 0.00 0.00 56 1011.1